GW2326 Weather Reports


time (UTC)temp
C
wind
direction
speed
KPH
gust
KPH
rain 1hr
cm
rain 24hr
cm
rain mn
cm
humidity
%
barometer
mb
20260906223550 35 152 24.1 56.3 0.00 0.00 0.00 39 1014.2
20260906223102 35 161 22.5 56.3 0.00 0.00 0.00 38 1014.3
20260906222549 35 206 24.1 37.0 0.00 0.00 0.00 39 1014.3
20260906222049 35 215 9.7 24.1 0.00 0.00 0.00 39 1014.3
20260906221557 35 159 11.3 19.3 0.00 0.00 0.00 39 1014.3
20260906221051 35 154 11.3 24.1 0.00 0.00 0.00 40 1014.4
20260906220550 35 175 16.1 29.0 0.00 0.00 0.00 39 1014.4
20260906220053 35 148 14.5 29.0 0.00 0.00 0.00 39 1014.4
20260906215546 35 132 16.1 29.0 0.00 0.00 0.00 39 1014.4
20260906215049 35 155 4.8 20.9 0.00 0.00 0.00 40 1014.4
20260906214600 35 130 12.9 22.5 0.00 0.00 0.00 40 1014.4
20260906214053 35 150 16.1 24.1 0.00 0.00 0.00 40 1014.4
20260906213548 35 163 16.1 24.1 0.00 0.00 0.00 41 1014.4
20260906213059 35 130 12.9 45.1 0.00 0.00 0.00 41 1014.5
20260906212549 35 207 12.9 45.1 0.00 0.00 0.00 40 1014.7
20260906212051 35 138 22.5 45.1 0.00 0.00 0.00 41 1014.7
20260906211601 35 133 16.1 25.7 0.00 0.00 0.00 41 1014.8
20260906211049 34 134 16.1 29.0 0.00 0.00 0.00 42 1014.8
20260906210549 34 156 14.5 29.0 0.00 0.00 0.00 41 1014.9
20260906210106 35 150 14.5 27.4 0.00 0.00 0.00 41 1015.0
20260906205550 35 140 11.3 25.7 0.00 0.00 0.00 40 1015.2
20260906205049 35 192 1.6 17.7 0.00 0.00 0.00 41 1015.2
20260906204600 34 69 11.3 27.4 0.00 0.00 0.00 42 1015.3
20260906204049 34 153 14.5 27.4 0.00 0.00 0.00 43 1015.4
20260906203553 34 128 19.3 27.4 0.00 0.00 0.00 42 1015.5
20260906203104 34 196 9.7 20.9 0.00 0.00 0.00 42 1015.4
20260906202549 35 119 9.7 20.9 0.00 0.00 0.00 40 1015.4
20260906202051 35 129 4.8 27.4 0.00 0.00 0.00 41 1015.5
20260906201602 35 157 11.3 27.4 0.00 0.00 0.00 42 1015.7
20260906201047 34 199 16.1 27.4 0.00 0.00 0.00 43 1015.9
20260906200546 34 173 4.8 19.3 0.00 0.00 0.00 43 1015.7
20260906195550 34 45 9.7 25.7 0.00 0.00 0.00 41 1015.7
20260906195050 34 69 9.7 25.7 0.00 0.00 0.00 41 1015.8
20260906194555 34 126 14.5 27.4 0.00 0.00 0.00 41 1016.0
20260906194049 34 161 12.9 27.4 0.00 0.00 0.00 42 1016.1
20260906193553 34 124 11.3 27.4 0.00 0.00 0.00 41 1016.0
20260906193104 34 96 14.5 32.2 0.00 0.00 0.00 41 1016.1
20260906192549 34 169 11.3 37.0 0.00 0.00 0.00 41 1016.2
20260906192050 34 154 22.5 37.0 0.00 0.00 0.00 41 1016.3
20260906191610 34 66 8.0 33.8 0.00 0.00 0.00 42 1016.3
20260906191050 34 92 19.3 33.8 0.00 0.00 0.00 42 1016.4
20260906190550 34 163 12.9 37.0 0.00 0.00 0.00 43 1016.5
20260906190059 34 155 19.3 37.0 0.00 0.00 0.00 42 1016.6
20260906185550 33 124 22.5 32.2 0.00 0.00 0.00 43 1016.5
20260906185050 33 71 12.9 37.0 0.00 0.00 0.00 44 1016.4
20260906184604 33 182 4.8 37.0 0.00 0.00 0.00 45 1016.5
20260906184049 33 143 12.9 37.0 0.00 0.00 0.00 45 1016.7
20260906183549 33 165 11.3 30.6 0.00 0.00 0.00 44 1016.8
20260906183056 33 103 6.4 30.6 0.00 0.00 0.00 44 1016.8
20260906182552 33 111 20.9 30.6 0.00 0.00 0.00 44 1017.0
20260906182049 33 194 11.3 29.0 0.00 0.00 0.00 45 1017.0
20260906181603 33 136 11.3 29.0 0.00 0.00 0.00 47 1017.2
20260906181050 33 51 8.0 27.4 0.00 0.00 0.00 47 1017.3
20260906180548 33 133 8.0 27.4 0.00 0.00 0.00 47 1017.3
20260906180111 33 137 12.9 24.1 0.00 0.00 0.00 48 1017.4
20260906175548 33 156 12.9 22.5 0.00 0.00 0.00 48 1017.4
20260906175053 33 91 11.3 19.3 0.00 0.00 0.00 47 1017.5
20260906174603 32 117 3.2 14.5 0.00 0.00 0.00 48 1017.7
20260906174048 32 124 1.6 24.1 0.00 0.00 0.00 49 1017.8
20260906173547 32 131 17.7 24.1 0.00 0.00 0.00 48 1017.9
20260906173101 32 105 6.4 20.9 0.00 0.00 0.00 49 1018.0
20260906172548 32 111 4.8 22.5 0.00 0.00 0.00 50 1018.0
20260906172048 31 156 4.8 22.5 0.00 0.00 0.00 53 1018.1
20260906171605 31 143 11.3 20.9 0.00 0.00 0.00 53 1018.1
20260906171049 31 155 8.0 16.1 0.00 0.00 0.00 52 1018.1
20260906170549 31 160 4.8 14.5 0.00 0.00 0.00 55 1018.2
20260906170107 31 220 8.0 14.5 0.00 0.00 0.00 57 1018.2
20260906165548 31 231 8.0 16.1 0.00 0.00 0.00 57 1018.3
20260906165050 31 188 4.8 16.1 0.00 0.00 0.00 57 1018.3
20260906164602 30 221 3.2 14.5 0.00 0.00 0.00 59 1018.4
20260906164048 30 313 6.4 14.5 0.00 0.00 0.00 60 1018.4
20260906163547 30 5 9.7 14.5 0.00 0.00 0.00 60 1018.5
20260906163114 30 325 6.4 14.5 0.00 0.00 0.00 60 1018.5
20260906162548 30 325 1.6 14.5 0.00 0.00 0.00 61 1018.5
20260906162052 30 334 4.8 14.5 0.00 0.00 0.00 60 1018.5
20260906161601 30 0 1.6 9.7 0.00 0.00 0.00 61 1018.5
20260906161048 30 123 3.2 9.7 0.00 0.00 0.00 62 1018.5
20260906160548 30 152 1.6 8.0 0.00 0.00 0.00 63 1018.5
20260906160104 29 201 1.6 8.0 0.00 0.00 0.00 64 1018.5
20260906155548 29 223 1.6 6.4 0.00 0.00 0.00 64 1018.5
20260906155047 28 0 1.6 4.8 0.00 0.00 0.00 64 1018.5
20260906154558 28 0 0.0 9.7 0.00 0.00 0.00 65 1018.6
20260906154050 28 231 1.6 9.7 0.00 0.00 0.00 66 1018.5
20260906153549 28 318 4.8 9.7 0.00 0.00 0.00 65 1018.5
20260906153118 28 310 1.6 8.0 0.00 0.00 0.00 66 1018.5
20260906152547 28 293 3.2 8.0 0.00 0.00 0.00 66 1018.4
20260906152047 28 239 1.6 6.4 0.00 0.00 0.00 66 1018.4
20260906151605 28 293 1.6 8.0 0.00 0.00 0.00 67 1018.2
20260906151047 28 135 1.6 8.0 0.00 0.00 0.00 67 1018.2
20260906150547 27 0 0.0 8.0 0.00 0.00 0.00 68 1018.1
20260906150113 27 300 6.4 9.7 0.00 0.00 0.00 67 1018.2
20260906145550 27 0 1.6 9.7 0.00 0.00 0.00 68 1018.1
20260906145050 27 315 4.8 9.7 0.00 0.00 0.00 68 1018.1
20260906144603 27 0 4.8 9.7 0.00 0.00 0.00 68 1018.1
20260906144049 27 250 0.0 11.3 0.00 0.00 0.00 68 1018.1
20260906143551 27 288 4.8 14.5 0.00 0.00 0.00 69 1018.1
20260906143100 27 221 4.8 14.5 0.00 0.00 0.00 69 1018.0
20260906142550 27 237 3.2 9.7 0.00 0.00 0.00 68 1018.0
20260906142051 27 228 1.6 4.8 0.00 0.00 0.00 67 1017.9
20260906141604 27 0 0.0 4.8 0.00 0.00 0.00 67 1017.9
20260906141050 27 0 0.0 4.8 0.00 0.00 0.00 67 1017.9
20260906140553 27 341 1.6 4.8 0.00 0.00 0.00 66 1017.9
20260906140104 27 141 0.0 4.8 0.00 0.00 0.00 67 1017.9
20260906135553 27 0 0.0 4.8 0.00 0.00 0.00 68 1017.8
20260906135049 26 0 0.0 6.4 0.00 0.00 0.00 69 1017.8
20260906134558 26 106 1.6 6.4 0.00 0.00 0.00 70 1017.9
20260906134050 26 146 1.6 6.4 0.00 0.00 0.00 70 1017.8
20260906133550 26 132 1.6 4.8 0.00 0.00 0.00 71 1017.7
20260906133136 25 111 1.6 4.8 0.00 0.00 0.00 71 1017.6
20260906132550 25 96 1.6 6.4 0.00 0.00 0.00 71 1017.5
20260906132050 24 130 3.2 6.4 0.00 0.00 0.00 71 1017.5
20260906131601 24 74 3.2 6.4 0.00 0.00 0.00 69 1017.5
20260906131049 24 60 3.2 6.4 0.00 0.00 0.00 69 1017.4
20260906130549 23 68 1.6 4.8 0.00 0.00 0.00 70 1017.3
20260906130109 23 0 0.0 0.0 0.00 0.00 0.00 69 1017.3
20260906125549 23 0 0.0 0.0 0.00 0.00 0.00 70 1017.2
20260906125050 23 0 0.0 0.0 0.00 0.00 0.00 72 1017.2
20260906124555 23 0 0.0 0.0 0.00 0.00 0.00 71 1017.1
20260906124050 23 0 0.0 3.2 0.00 0.00 0.00 70 1017.0
20260906123550 23 0 0.0 3.2 0.00 0.00 0.00 71 1017.0
20260906123054 23 154 1.6 4.8 0.00 0.00 0.00 71 1016.8
20260906122550 23 154 1.6 4.8 0.00 0.00 0.00 71 1016.8
20260906122049 23 155 3.2 4.8 0.00 0.00 0.00 72 1016.7
20260906121555 23 0 0.0 0.0 0.00 0.00 0.00 72 1016.6
20260906121049 23 0 0.0 0.0 0.00 0.00 0.00 73 1016.7
20260906120549 23 0 0.0 0.0 0.00 0.00 0.00 73 1016.6
20260906115549 23 0 0.0 0.0 0.00 0.00 0.00 72 1016.6
20260906115049 23 0 0.0 3.2 0.00 0.00 0.00 72 1016.6
20260906114602 23 0 0.0 4.8 0.00 0.00 0.00 71 1016.6
20260906114050 23 154 1.6 6.4 0.00 0.00 0.00 71 1016.6
20260906113549 23 146 3.2 6.4 0.00 0.00 0.00 70 1016.5
20260906113101 23 146 3.2 6.4 0.00 0.00 0.00 70 1016.5
20260906112549 23 142 4.8 6.4 0.00 0.00 0.00 68 1016.5
20260906112050 23 138 4.8 6.4 0.00 0.00 0.00 67 1016.4
20260906111618 23 128 3.2 6.4 0.00 0.00 0.00 67 1016.3
20260906111049 23 0 0.0 0.0 0.00 0.00 0.00 66 1016.4
20260906110549 24 0 0.0 0.0 0.00 0.00 0.00 67 1016.3
20260906105550 24 0 0.0 0.0 0.00 0.00 0.00 70 1016.3
20260906105049 24 0 0.0 0.0 0.00 0.00 0.00 69 1016.3
20260906104602 24 0 0.0 0.0 0.00 0.00 0.00 70 1016.3
20260906104057 24 0 0.0 0.0 0.00 0.00 0.00 68 1016.2
20260906103549 24 0 0.0 0.0 0.00 0.00 0.00 68 1016.1
20260906103057 24 0 0.0 0.0 0.00 0.00 0.00 68 1016.1
20260906102549 24 0 0.0 0.0 0.00 0.00 0.00 68 1016.1
20260906102049 24 0 0.0 0.0 0.00 0.00 0.00 67 1016.1
20260906101556 24 0 0.0 0.0 0.00 0.00 0.00 67 1016.1
20260906101049 24 0 0.0 0.0 0.00 0.00 0.00 67 1016.1
20260906100550 24 0 0.0 0.0 0.00 0.00 0.00 67 1016.0
20260906100100 24 0 0.0 1.6 0.00 0.00 0.00 66 1015.9
20260906095551 24 0 0.0 3.2 0.00 0.00 0.00 66 1015.9
20260906095050 24 0 0.0 3.2 0.00 0.00 0.00 66 1016.0
20260906094554 24 173 0.0 4.8 0.00 0.00 0.00 67 1016.0
20260906094050 24 158 1.6 8.0 0.00 0.00 0.00 66 1015.9
20260906093550 25 155 3.2 8.0 0.00 0.00 0.00 64 1016.0
20260906093105 25 155 4.8 8.0 0.00 0.00 0.00 65 1016.0
20260906092550 25 154 3.2 8.0 0.00 0.00 0.00 64 1015.9
20260906092050 25 0 0.0 3.2 0.00 0.00 0.00 65 1015.8
20260906091601 25 0 0.0 3.2 0.00 0.00 0.00 65 1015.7
20260906091049 25 0 0.0 3.2 0.00 0.00 0.00 64 1015.8
20260906090549 25 200 0.0 6.4 0.00 0.00 0.00 64 1015.7
20260906085553 25 190 3.2 9.7 0.00 0.00 0.00 63 1015.5
20260906085046 25 167 6.4 14.5 0.00 0.00 0.00 63 1015.7
20260906084606 25 196 8.0 19.3 0.00 0.00 0.00 63 1015.7
20260906084050 25 172 11.3 20.9 0.00 0.00 0.00 63 1015.8
20260906083552 25 176 12.9 20.9 0.00 0.00 0.00 64 1015.9
20260906083102 25 165 6.4 11.3 0.00 0.00 0.00 63 1015.9
20260906082549 25 149 6.4 12.9 0.00 0.00 0.00 63 1015.7
20260906082049 25 151 9.7 12.9 0.00 0.00 0.00 63 1015.7
20260906081603 25 149 9.7 12.9 0.00 0.00 0.00 62 1015.7
20260906081049 25 143 11.3 12.9 0.00 0.00 0.00 61 1015.8
20260906080550 25 131 9.7 11.3 0.00 0.00 0.00 61 1015.8
20260906080104 25 126 6.4 14.5 0.00 0.00 0.00 61 1015.8
20260906075549 25 128 8.0 16.1 0.00 0.00 0.00 61 1015.8
20260906075050 25 120 12.9 16.1 0.00 0.00 0.00 61 1016.0
20260906074601 25 120 6.4 11.3 0.00 0.00 0.00 58 1016.0
20260906074049 25 98 8.0 11.3 0.00 0.00 0.00 58 1016.0
20260906073549 26 84 0.0 8.0 0.00 0.00 0.00 56 1015.9
20260906073101 26 0 0.0 0.0 0.00 0.00 0.00 59 1016.0
20260906072550 26 0 0.0 0.0 0.00 0.00 0.00 59 1016.0
20260906072050 26 0 0.0 0.0 0.00 0.00 0.00 59 1016.1
20260906071554 26 0 0.0 0.0 0.00 0.00 0.00 59 1016.1
20260906071050 26 0 0.0 0.0 0.00 0.00 0.00 58 1016.1
20260906070550 26 0 0.0 0.0 0.00 0.00 0.00 58 1016.2
20260906065549 26 0 0.0 0.0 0.00 0.00 0.00 58 1016.3
20260906065050 26 0 0.0 0.0 0.00 0.00 0.00 58 1016.3
20260906064558 26 0 0.0 0.0 0.00 0.00 0.00 58 1016.3
20260906064050 26 0 0.0 3.2 0.00 0.00 0.00 57 1016.3
20260906063549 26 0 0.0 3.2 0.00 0.00 0.00 57 1016.3
20260906063055 26 183 1.6 4.8 0.00 0.00 0.00 57 1016.4
20260906062549 26 189 1.6 4.8 0.00 0.00 0.00 57 1016.3
20260906062050 27 184 1.6 6.4 0.00 0.00 0.00 57 1016.5
20260906061600 27 183 3.2 6.4 0.00 0.00 0.00 56 1016.5
20260906061049 27 176 1.6 6.4 0.00 0.00 0.00 56 1016.5
20260906060549 27 0 0.0 3.2 0.00 0.00 0.00 56 1016.5
20260906060103 27 0 0.0 3.2 0.00 0.00 0.00 56 1016.6
20260906055549 27 188 1.6 3.2 0.00 0.00 0.00 56 1016.5
20260906055050 27 205 1.6 4.8 0.00 0.00 0.00 56 1016.5
20260906054606 27 206 1.6 4.8 0.00 0.00 0.00 56 1016.6
20260906054050 27 206 3.2 4.8 0.00 0.00 0.00 55 1016.5
20260906053550 27 205 1.6 4.8 0.00 0.00 0.00 55 1016.7
20260906053100 27 204 3.2 8.0 0.00 0.00 0.00 54 1016.6
20260906052550 27 202 3.2 11.3 0.00 0.00 0.00 54 1016.5
20260906052048 28 360 6.4 12.9 0.00 0.00 0.00 54 1016.6
20260906051612 28 171 9.7 12.9 0.00 0.00 0.00 53 1016.6
20260906051048 28 171 9.7 12.9 0.00 0.00 0.00 53 1016.6
20260906050549 28 165 9.7 14.5 0.00 0.00 0.00 52 1016.6
20260906050059 28 169 9.7 14.5 0.00 0.00 0.00 52 1016.6
20260906045547 28 185 9.7 14.5 0.00 0.00 0.00 52 1016.7
20260906045051 28 171 11.3 16.1 0.00 0.00 0.00 51 1016.6
20260906044606 29 164 11.3 19.3 0.00 0.00 0.00 51 1016.6
20260906044048 29 167 12.9 19.3 0.00 0.00 0.00 51 1016.6
20260906043551 29 164 12.9 19.3 0.00 0.00 0.00 50 1016.6
20260906043053 29 170 12.9 19.3 0.00 0.00 0.00 50 1016.6
20260906042549 29 178 12.9 17.7 0.00 0.00 0.00 50 1016.6
20260906042048 29 169 9.7 17.7 0.00 0.00 0.00 50 1016.6
20260906041602 30 178 11.3 19.3 0.00 0.00 0.00 49 1016.7
20260906041047 30 161 12.9 22.5 0.00 0.00 0.00 49 1016.6
20260906040548 30 171 16.1 22.5 0.00 0.00 0.00 49 1016.6
20260906040138 30 162 14.5 24.1 0.00 0.00 0.00 48 1016.5
20260906035547 30 144 16.1 24.1 0.00 0.00 0.00 48 1016.5
20260906035047 30 148 17.7 24.1 0.00 0.00 0.00 48 1016.3
20260906034620 30 147 17.7 24.1 0.00 0.00 0.00 48 1016.1
20260906034047 30 132 16.1 24.1 0.00 0.00 0.00 48 1016.2
20260906033547 30 148 16.1 20.9 0.00 0.00 0.00 48 1016.2
20260906033108 30 141 16.1 22.5 0.00 0.00 0.00 48 1016.2
20260906032547 30 141 14.5 22.5 0.00 0.00 0.00 47 1016.0
20260906032047 30 143 16.1 25.7 0.00 0.00 0.00 47 1015.9
20260906031601 31 151 16.1 25.7 0.00 0.00 0.00 47 1015.9
20260906031048 31 161 16.1 22.5 0.00 0.00 0.00 47 1015.9
20260906030548 31 144 16.1 22.5 0.00 0.00 0.00 47 1015.8
20260906030104 31 142 16.1 22.5 0.00 0.00 0.00 47 1015.7
20260906025547 31 138 16.1 22.5 0.00 0.00 0.00 47 1015.7
20260906025048 31 132 17.7 24.1 0.00 0.00 0.00 46 1015.6
20260906024614 31 145 17.7 24.1 0.00 0.00 0.00 46 1015.5
20260906024047 31 136 17.7 24.1 0.00 0.00 0.00 46 1015.3
20260906023550 31 132 17.7 24.1 0.00 0.00 0.00 46 1015.2
20260906023103 31 142 19.3 24.1 0.00 0.00 0.00 46 1015.2
20260906022548 31 141 19.3 24.1 0.00 0.00 0.00 46 1015.2
20260906022051 32 132 19.3 24.1 0.00 0.00 0.00 45 1015.1
20260906021601 32 125 19.3 24.1 0.00 0.00 0.00 45 1015.0
20260906021049 32 138 17.7 24.1 0.00 0.00 0.00 45 1014.9
20260906020549 32 130 17.7 22.5 0.00 0.00 0.00 45 1014.5
20260906020107 32 131 17.7 24.1 0.00 0.00 0.00 45 1014.5
20260906015550 32 135 19.3 24.1 0.00 0.00 0.00 44 1014.5
20260906015050 32 137 17.7 24.1 0.00 0.00 0.00 44 1014.4
20260906014556 32 132 17.7 24.1 0.00 0.00 0.00 43 1014.5
20260906014049 32 131 17.7 24.1 0.00 0.00 0.00 42 1014.4
20260906013551 32 134 17.7 22.5 0.00 0.00 0.00 41 1014.3
20260906013117 32 138 16.1 20.9 0.00 0.00 0.00 41 1014.3
20260906012549 33 125 16.1 20.9 0.00 0.00 0.00 40 1014.3
20260906012049 33 130 16.1 24.1 0.00 0.00 0.00 40 1014.3
20260906011604 33 129 17.7 24.1 0.00 0.00 0.00 40 1014.2
20260906011052 33 131 19.3 24.1 0.00 0.00 0.00 39 1014.2
20260906010549 33 137 19.3 25.7 0.00 0.00 0.00 39 1014.1
20260906005552 33 128 17.7 24.1 0.00 0.00 0.00 39 1014.0
20260906005050 34 126 19.3 25.7 0.00 0.00 0.00 39 1014.0
20260906004555 34 127 17.7 29.0 0.00 0.00 0.00 39 1014.0
20260906004049 34 142 19.3 33.8 0.00 0.00 0.00 39 1014.0
20260906003549 34 139 24.1 33.8 0.00 0.00 0.00 39 1014.0
20260906003102 35 123 22.5 29.0 0.00 0.00 0.00 39 1014.0
20260906002554 35 126 22.5 27.4 0.00 0.00 0.00 39 1013.9
20260906002050 35 140 20.9 27.4 0.00 0.00 0.00 39 1013.9
20260906001608 35 125 19.3 25.7 0.00 0.00 0.00 39 1013.8
20260906001050 35 129 19.3 27.4 0.00 0.00 0.00 39 1013.8
20260906000550 35 131 19.3 32.2 0.00 0.00 0.00 40 1013.8
20260906000058 35 116 22.5 32.2 0.00 0.00 0.00 40 1013.8
20260905235550 35 107 25.7 32.2 0.00 0.00 0.00 40 1013.7
20260905235050 35 127 27.4 32.2 0.00 0.00 0.00 40 1013.7
20260905234603 35 137 25.7 32.2 0.00 0.00 0.00 40 1013.6
20260905234049 35 146 20.9 25.7 0.00 0.00 0.00 40 1013.5
20260905233550 35 135 19.3 25.7 0.00 0.00 0.00 39 1013.4
20260905233104 35 119 20.9 30.6 0.00 0.00 0.00 39 1013.5
20260905232550 35 127 22.5 30.6 0.00 0.00 0.00 40 1013.5
20260905232050 35 140 19.3 29.0 0.00 0.00 0.00 40 1013.4
20260905231600 35 129 17.7 29.0 0.00 0.00 0.00 40 1013.5
20260905231050 35 147 17.7 24.1 0.00 0.00 0.00 40 1013.4
20260905230550 35 178 14.5 32.2 0.00 0.00 0.00 40 1013.5
20260905230107 35 130 16.1 32.2 0.00 0.00 0.00 40 1013.4
20260905225549 35 157 16.1 32.2 0.00 0.00 0.00 40 1013.5
20260905225050 35 121 19.3 32.2 0.00 0.00 0.00 40 1013.5
20260905224618 35 152 24.1 32.2 0.00 0.00 0.00 40 1013.5
20260905224050 35 117 11.3 29.0 0.00 0.00 0.00 40 1013.6